SV2HRT-2 Agia Triada GR current weather conditions

sailwx.info

Wind from 022

Air temperature 23.3° C
Dewpoint 19.7° C

Last reported at 2014-Sep-22 23:55 UTC.
Time now 2014-Sep-23 00:23 UTC

Location: N 40°30' E 022°53'.
View on Google Maps.

See reports from other nearby stations

  
Tides and Currents Weather Stations Pressure Air Temp Water Temp Dewpoint Dewpoint Depression Visibility Wind Speed Wind Dir Waves Ship Positions
date/time (UTC)wind fromknots sea level pressurealtimeterstation pressurevisibilityair tempwater tempwave heightnotes
2014-Sep-22 23:55 022 23.3
2014-Sep-22 23:44 292 23.3
2014-Sep-22 23:38 292 23.3
2014-Sep-22 23:34 292 23.3
2014-Sep-22 23:24 292 23.3
2014-Sep-22 23:14 292 23.3
2014-Sep-22 23:06 292 23.3
2014-Sep-22 23:04 292 23.3
2014-Sep-22 22:54 292 0 23.3
2014-Sep-22 22:46 292 0 23.3
2014-Sep-22 22:44 292 0 gusting 0 23.3
2014-Sep-22 22:34 292 23.3
2014-Sep-22 22:29 292 23.3
2014-Sep-22 22:24 022 23.3
2014-Sep-22 22:14 022 23.3
2014-Sep-22 22:04 090 23.3
2014-Sep-22 21:55 090 23.3
2014-Sep-22 21:44 090 23.3
2014-Sep-22 21:38 090 23.3
2014-Sep-22 21:34 090 23.3
2014-Sep-22 21:24 090 23.3
2014-Sep-22 21:14 090 23.3
2014-Sep-22 21:04 090 23.3
2014-Sep-22 20:54 090 23.3
2014-Sep-22 20:47 090 23.3
2014-Sep-22 20:44 090 23.3
2014-Sep-22 20:34 090 23.3
2014-Sep-22 20:30 090 23.3
2014-Sep-22 20:24 090 23.3
2014-Sep-22 20:14 090 1 gusting 1 23.9
2014-Sep-22 20:04 090 23.9
2014-Sep-22 19:56 090 23.9
2014-Sep-22 19:54 090 23.9
2014-Sep-22 19:44 090 23.9
2014-Sep-22 19:39 090 23.9
2014-Sep-22 19:34 090 23.9
2014-Sep-22 19:24 090 23.9
2014-Sep-22 19:14 090 23.3
2014-Sep-22 19:05 090 23.3
2014-Sep-22 18:54 090 1 gusting 2 23.9
2014-Sep-22 18:48 090 1 gusting 2 23.9
2014-Sep-22 18:44 090 1 gusting 2 23.9
2014-Sep-22 18:34 090 23.9
2014-Sep-22 18:24 090 23.9
2014-Sep-22 18:14 090 23.9
2014-Sep-22 18:04 090 23.9
2014-Sep-22 17:57 090 23.9
2014-Sep-22 17:54 090 23.9
2014-Sep-22 17:44 090 23.9
2014-Sep-22 17:40 090 23.9
2014-Sep-22 17:34 090 23.9
2014-Sep-22 17:24 090 23.9
2014-Sep-22 17:14 090 23.9
2014-Sep-22 17:06 090 23.9
2014-Sep-22 17:04 090 0 23.9
2014-Sep-22 16:54 090 24.4
2014-Sep-22 16:49 090 24.4
2014-Sep-22 16:44 090 0 gusting 0 24.4
2014-Sep-22 16:34 090 2 gusting 2 24.4
2014-Sep-22 16:24 022 3 gusting 3 24.4
2014-Sep-22 16:15 090 5 gusting 5 24.4
2014-Sep-22 16:04 023 11 gusting 12 24.4
2014-Sep-22 15:58 090 6 gusting 4 24.4
2014-Sep-22 15:54 090 5 gusting 5 25.0
2014-Sep-22 15:44 084 5 gusting 5 25.0
2014-Sep-22 15:34 090 2 gusting 2 25.0
2014-Sep-22 15:24 090 4 gusting 3 25.6
2014-Sep-22 15:14 090 4 gusting 3 25.6
2014-Sep-22 15:07 072 4 gusting 4 25.6
2014-Sep-22 15:04 022 6 gusting 6 25.6
2014-Sep-22 14:54 090 6 gusting 6 26.1
2014-Sep-22 14:50 069 26.1
2014-Sep-22 14:44 054 6 gusting 6 26.1
2014-Sep-22 14:34 090 9 gusting 11 26.7
2014-Sep-22 14:24 022 9 gusting 10 26.7
2014-Sep-22 14:16 090 1 gusting 6 27.2
2014-Sep-22 14:14 090 0 gusting 0 27.2
2014-Sep-22 14:04 090 0 gusting 0 27.2
2014-Sep-22 13:59 090 0 gusting 0 27.2
2014-Sep-22 13:54 090 27.2
2014-Sep-22 13:44 076 5 gusting 3 27.8
2014-Sep-22 13:34 081 6 gusting 7 27.8
2014-Sep-22 13:25 090 2 27.8
2014-Sep-22 13:14 090 7 gusting 7 27.8
2014-Sep-22 13:08 090 5 gusting 6 27.8
2014-Sep-22 13:04 090 6 gusting 6 27.8
2014-Sep-22 12:54 090 7 gusting 7 27.8
2014-Sep-22 12:44 090 3 gusting 3 27.8
2014-Sep-22 12:34 090 3 gusting 3 27.2
2014-Sep-22 12:24 090 4 gusting 5 27.2
2014-Sep-22 12:17 090 3 gusting 3 27.2
2014-Sep-22 12:14 090 1 gusting 2 27.2
2014-Sep-22 12:04 022 3 gusting 3 26.1
2014-Sep-22 12:00 022 3 gusting 3 26.1
2014-Sep-22 11:54 022 3 gusting 3 26.1
2014-Sep-22 11:44 022 3 gusting 3 26.1
2014-Sep-22 11:34 022 3 gusting 3 26.1
2014-Sep-22 11:26 022 3 gusting 3 26.1
2014-Sep-22 11:24 022 0 gusting 1 26.1
2014-Sep-22 11:14 022 3 gusting 3 26.1
2014-Sep-22 11:09 300 25.6
2014-Sep-22 11:04 022 4 gusting 5 25.6
2014-Sep-22 10:54 292 0 25.0
2014-Sep-22 10:44 25.0
2014-Sep-22 10:35 292 25.0
2014-Sep-22 10:24 292 0 24.4
2014-Sep-22 10:18 292 0 gusting 2 24.4
2014-Sep-22 10:14 292 24.4
2014-Sep-22 10:04 340 0 gusting 1 24.4
2014-Sep-22 09:54 292 1 gusting 1 23.9
2014-Sep-22 09:44 292 0 gusting 1 23.3
2014-Sep-22 09:34 292 0 gusting 1 23.3
2014-Sep-22 09:27 23.3
2014-Sep-22 09:24 292 1 23.3
2014-Sep-22 09:14 292 1 23.3
2014-Sep-22 09:10 22.8
2014-Sep-22 09:04 22.8
2014-Sep-22 08:54 22.8
2014-Sep-22 08:44 22.8
2014-Sep-22 08:36 22.8
2014-Sep-22 08:34 22.8
2014-Sep-22 08:24 22.2
2014-Sep-22 08:19 22.2
2014-Sep-22 08:14 22.2
2014-Sep-22 08:04 22.2
2014-Sep-22 07:54 292 3 gusting 3 22.2
2014-Sep-22 07:45 292 22.2
2014-Sep-22 07:34 292 21.7
2014-Sep-22 07:28 292 21.7
2014-Sep-22 07:24 292 21.7
2014-Sep-22 07:14 21.7
2014-Sep-22 07:04 21.7
2014-Sep-22 06:54 21.7
2014-Sep-22 06:44 21.7
2014-Sep-22 06:37 21.7
2014-Sep-22 06:34 21.7
2014-Sep-22 06:24 21.7
2014-Sep-22 06:20 21.7
2014-Sep-22 06:14 21.7
2014-Sep-22 06:04 21.7
2014-Sep-22 05:54 21.7
2014-Sep-22 05:46 21.7
2014-Sep-22 05:44 21.7
2014-Sep-22 05:34 21.7
2014-Sep-22 05:29 21.7
2014-Sep-22 05:24 21.7
2014-Sep-22 05:14 21.7
2014-Sep-22 05:04 21.7
2014-Sep-22 04:55 21.7
2014-Sep-22 04:44 022 21.1
2014-Sep-22 04:38 022 21.1
2014-Sep-22 04:34 022 21.1
2014-Sep-22 04:24 022 21.7
2014-Sep-22 04:14 084 21.7
2014-Sep-22 04:04 090 21.7
2014-Sep-22 03:54 090 21.1
2014-Sep-22 03:47 090 21.1
2014-Sep-22 03:44 21.7
2014-Sep-22 03:34 21.7
2014-Sep-22 03:30 21.7
2014-Sep-22 03:24 090 21.1
2014-Sep-22 03:14 090 21.1
2014-Sep-22 03:04 090 21.1
2014-Sep-22 02:56 090 21.1
2014-Sep-22 02:54 090 21.1
2014-Sep-22 02:44 090 21.1
2014-Sep-22 02:39 090 21.1
2014-Sep-22 02:34 090 21.1
2014-Sep-22 02:24 090 21.1
2014-Sep-22 02:14 090 21.1
2014-Sep-22 02:05 090 21.1
2014-Sep-22 01:54 090 21.7
2014-Sep-22 01:48 090 21.7
2014-Sep-22 01:44 090 21.7
2014-Sep-22 01:34 090 1 gusting 1 21.7
2014-Sep-22 01:24 090 1 gusting 1 21.7
2014-Sep-22 01:14 090 0 gusting 0 21.7
2014-Sep-22 01:04 090 21.7
2014-Sep-22 00:57 090 21.7
2014-Sep-22 00:54 022 21.7
2014-Sep-22 00:44 090 21.7
2014-Sep-22 00:40 090 21.7
2014-Sep-22 00:34 090 21.7
2014-Sep-22 00:24 090 21.7
2014-Sep-22 00:14 090 21.7
2014-Sep-22 00:06 090 21.7
2014-Sep-22 00:04 090 21.7
2014-Sep-21 23:54 090 21.7
2014-Sep-21 23:49 090 21.7
2014-Sep-21 23:44 090 0 gusting 0 21.7
2014-Sep-21 23:34 090 0 gusting 0 21.7
2014-Sep-21 23:24 090 21.7
2014-Sep-21 23:15 090 21.7
2014-Sep-21 23:04 090 21.7
2014-Sep-21 22:58 090 21.7
2014-Sep-21 22:54 090 21.7
2014-Sep-21 22:44 090 1 gusting 1 21.7
2014-Sep-21 22:34 022 1 gusting 3 22.2
2014-Sep-21 22:24 090 22.2
2014-Sep-21 22:14 090 22.2
2014-Sep-21 22:07 090 22.2
2014-Sep-21 22:04 090 22.2
2014-Sep-21 21:54 090 1 gusting 1 22.2
2014-Sep-21 21:50 090 0 gusting 1 22.2
2014-Sep-21 21:44 022 22.2
2014-Sep-21 21:34 066 22.2
2014-Sep-21 21:24 090 22.2
2014-Sep-21 21:16 090 22.2
2014-Sep-21 21:14 090 3 gusting 2 22.2
2014-Sep-21 21:04 090 22.2
2014-Sep-21 20:59 090 22.2
2014-Sep-21 20:54 090 22.2
2014-Sep-21 20:44 090 5 gusting 5 21.7
2014-Sep-21 20:34 090 5 gusting 5 21.7
2014-Sep-21 20:25 090 2 gusting 5 21.7
2014-Sep-21 20:14 090 3 gusting 4 22.2
2014-Sep-21 20:08 090 22.2
2014-Sep-21 20:04 043 22.2
2014-Sep-21 19:54 090 0 gusting 0 22.2
2014-Sep-21 19:44 090 1 gusting 0 22.2
2014-Sep-21 19:34 090 2 gusting 3 22.2
2014-Sep-21 19:24 090 1 gusting 1 22.2
2014-Sep-21 19:17 090 1 gusting 1 22.2
2014-Sep-21 19:14 090 1 gusting 1 22.2
2014-Sep-21 19:04 090 2 gusting 3 22.2
2014-Sep-21 19:00 090 3 gusting 3 22.2
2014-Sep-21 18:54 090 3 gusting 3 22.2
2014-Sep-21 18:44 090 5 gusting 3 22.2
2014-Sep-21 18:34 090 2 gusting 2 22.8
2014-Sep-21 18:26 090 4 gusting 5 22.8
2014-Sep-21 18:24 090 3 gusting 3 22.8
2014-Sep-21 18:14 090 22.8
2014-Sep-21 18:09 090 22.8
2014-Sep-21 18:04 090 22.8
2014-Sep-21 17:54 090 3 gusting 3 22.8
2014-Sep-21 17:44 090 2 gusting 6 22.8
2014-Sep-21 17:35 022 1 22.8
2014-Sep-21 17:24 090 4 gusting 6 23.3
2014-Sep-21 17:18 090 4 gusting 5 23.3
2014-Sep-21 17:14 090 3 gusting 3 23.3
2014-Sep-21 17:04 090 1 23.3
2014-Sep-21 16:54 090 23.3
2014-Sep-21 16:44 090 23.9
2014-Sep-21 16:34 090 23.9
2014-Sep-21 16:27 090 3 gusting 4 23.9
2014-Sep-21 16:24 090 4 gusting 6 23.9
2014-Sep-21 16:14 090 3 gusting 1 24.4
2014-Sep-21 16:10 090 3 gusting 1 24.4
2014-Sep-21 16:04 090 4 gusting 4 24.4
2014-Sep-21 15:54 090 2 gusting 3 24.4
2014-Sep-21 15:44 090 2 gusting 2 24.4
2014-Sep-21 15:36 022 4 gusting 4 24.4
2014-Sep-21 15:34 022 4 gusting 4 24.4
2014-Sep-21 15:24 041 4 gusting 4 24.4
2014-Sep-21 15:19 022 5 gusting 3 24.4
2014-Sep-21 15:14 090 2 gusting 2 24.4
2014-Sep-21 15:04 081 3 gusting 3 24.4
2014-Sep-21 14:54 022 3 gusting 3 25.0
2014-Sep-21 14:45 022 3 gusting 4 25.0
2014-Sep-21 14:34 025 1 gusting 0 25.0
2014-Sep-21 14:28 022 1 gusting 0 25.0
2014-Sep-21 14:24 022 1 gusting 0 25.0
2014-Sep-21 14:14 022 2 gusting 2 25.0
2014-Sep-21 14:04 022 5 gusting 5 25.6
2014-Sep-21 13:54 022 5 gusting 5 25.6
2014-Sep-21 13:44 25.6
2014-Sep-21 13:37 022 2 gusting 2 25.6
2014-Sep-21 13:34 022 3 gusting 3 25.6
2014-Sep-21 13:24 090 3 gusting 3 25.0
2014-Sep-21 13:20 022 3 gusting 3 25.0
2014-Sep-21 13:14 022 0 gusting 4 25.0
2014-Sep-21 13:04 022 25.6
2014-Sep-21 12:54 022 4 gusting 5 25.6
2014-Sep-21 12:46 25.6
2014-Sep-21 12:44 25.6
2014-Sep-21 12:34 090 25.6
2014-Sep-21 12:29 090 26.1
2014-Sep-21 12:24 090 0 gusting 0 26.1
2014-Sep-21 12:14 019 3 gusting 5 26.1
2014-Sep-21 12:04 090 26.1
2014-Sep-21 11:55 090 26.1
2014-Sep-21 11:44 002 1 gusting 1 26.1
2014-Sep-21 11:38 307 0 gusting 5 25.6
2014-Sep-21 11:34 292 1 gusting 1 25.6
2014-Sep-21 11:24 022 25.6
2014-Sep-21 11:14 022 25.6
2014-Sep-21 11:04 292 25.0
2014-Sep-21 10:54 292 25.0
2014-Sep-21 10:47 292 25.0
2014-Sep-21 10:44 347 1 gusting 2 25.0
2014-Sep-21 10:34 022 0 25.0
2014-Sep-21 10:30 292 1 gusting 1 25.0
2014-Sep-21 10:24 292 0 24.4
2014-Sep-21 10:14 292 1 gusting 4 24.4
2014-Sep-21 10:04 292 23.9
2014-Sep-21 09:56 292 1 gusting 2 23.9
2014-Sep-21 09:54 292 0 gusting 0 23.9
2014-Sep-21 09:44 292 2 gusting 1 23.3
2014-Sep-21 09:39 292 2 gusting 1 23.3
2014-Sep-21 09:34 292 2 gusting 1 23.3
2014-Sep-21 09:24 292 0 gusting 2 23.3
2014-Sep-21 09:14 292 0 22.8
2014-Sep-21 09:05 292 0 22.8
2014-Sep-21 08:54 325 0 gusting 1 22.8
2014-Sep-21 08:48 292 2 gusting 3 22.8
2014-Sep-21 08:44 292 1 gusting 2 22.2
2014-Sep-21 08:34 292 22.2
2014-Sep-21 08:24 292 22.2
2014-Sep-21 08:14 292 21.7
2014-Sep-21 08:04 292 21.7
2014-Sep-21 07:57 292 21.7
2014-Sep-21 07:54 292 1 gusting 1 21.7
2014-Sep-21 07:44 292 21.7
2014-Sep-21 07:40 292 21.7
2014-Sep-21 07:34 292 21.7
2014-Sep-21 07:24 21.1
2014-Sep-21 07:14 21.1
2014-Sep-21 07:06 21.1
2014-Sep-21 07:04 327 21.1
2014-Sep-21 06:54 292 21.1
2014-Sep-21 06:49 21.1
2014-Sep-21 06:44 21.1
2014-Sep-21 06:34 20.6
2014-Sep-21 06:24 20.6
2014-Sep-21 06:15 20.6
2014-Sep-21 06:04 022 20.6
2014-Sep-21 05:58 022 20.6
2014-Sep-21 05:54 022 20.6
2014-Sep-21 05:44 022 20.6
2014-Sep-21 05:34 022 20.0
2014-Sep-21 05:24 022 20.0
2014-Sep-21 05:14 022 20.0
2014-Sep-21 05:07 022 20.0
2014-Sep-21 05:04 022 20.0
2014-Sep-21 04:54 022 20.0
2014-Sep-21 04:50 022 20.0
2014-Sep-21 04:44 022 20.0
2014-Sep-21 04:34 022 20.0
2014-Sep-21 04:24 022 20.0
2014-Sep-21 04:16 022 20.0
2014-Sep-21 04:14 022 20.0
2014-Sep-21 04:04 022 20.6
2014-Sep-21 03:59 022 20.6
2014-Sep-21 03:54 090 20.6
2014-Sep-21 03:44 022 20.6
2014-Sep-21 03:34 022 20.6
2014-Sep-21 03:25 022 20.6
2014-Sep-21 03:14 090 20.6
2014-Sep-21 03:08 090 20.6
2014-Sep-21 03:04 090 20.6
2014-Sep-21 02:54 090 20.6
2014-Sep-21 02:44 090 20.6
2014-Sep-21 02:34 047 20.6
2014-Sep-21 02:24 090 20.6
2014-Sep-21 02:17 090 20.6
2014-Sep-21 02:14 090 20.6
2014-Sep-21 02:04 022 20.6
2014-Sep-21 02:00 022 20.6
2014-Sep-21 01:54 022 20.6
2014-Sep-21 01:44 090 0 gusting 0 20.6
2014-Sep-21 01:34 090 20.6
2014-Sep-21 01:26 022 20.6
2014-Sep-21 01:24 022 0 gusting 0 20.6
2014-Sep-21 01:14 090 1 gusting 1 20.6
2014-Sep-21 01:09 090 20.6
2014-Sep-21 01:03 090 20.6
2014-Sep-21 00:53 090 0 gusting 0 20.6
2014-Sep-21 00:44 090 20.6
2014-Sep-21 00:35 022 20.6
2014-Sep-21 00:24 022 20.6
2014-Sep-21 00:18 022 20.6
2014-Sep-21 00:13 090 20.6
2014-Sep-21 00:04 090 20.6